#timestamp,LO_Frequency,Hit,StdDev 
1608469215.7,286047000.0,N
1608469235.5,286047000.2,N
1608469255.4,286047000.0,N
1608469275.2,286047000.1,N
1608469295.0,286047000.7,N
1608469295.9,286047000.7,N
1608469315.8,286047000.6,N
1608469335.6,286046998.6,N
1608469355.4,286046998.6,N
1608469375.3,286047001.2,N
1608469395.1,286047000.6,N
1608469415.9,286047000.2,N
1608469435.7,286047000.6,N
1608469455.5,286047000.6,N
1608469475.4,286046998.6,N
1608469495.2,286047000.7,N
1608469515.1,286047000.8,N
1608469516.0,286047000.8,N
1608469535.8,286047001.2,N
1608469555.6,286047000.6,N
1608469575.5,286046998.1,N
1608469595.3,286047000.5,N
1608469615.1,286047000.8,N
1608469635.9,286047001.1,N
1608469655.7,286047000.4,N
1608469675.6,286047000.7,N
1608469695.4,286046998.1,N
1608469715.2,286046998.1,N
1608469735.1,286047000.8,N
1608469736.0,286047000.8,N
1608469755.8,286047001.2,N
1608469775.7,286046998.5,N
1608469795.5,286046998.5,N
1608469815.3,286046999.7,N
1608469835.2,286047000.4,N
1608469855.0,286047000.9,N
1608469855.9,286047000.9,N
1608469875.8,286047000.4,N
1608469895.6,286047000.9,N
1608469915.4,286047000.7,N
1608469935.3,286047000.6,N
1608469955.1,286047000.4,N
1608469975.8,286047000.7,N
1608469995.7,286047000.4,N
1608470015.5,286046999.9,N
1608470035.4,286047000.3,N
1608470055.2,286046998.2,N
1608470105.1,286047000.9,E
1608470115.9,286046998.2,N
1608470135.7,286046998.2,P
1608470155.6,286046998.6,P
1608470175.4,286046998.8,Y
1608470195.2,286046999.9,P
1608470215.1,286046999.8,N
1608470216.0,286046999.8,N
1608470235.8,286047000.2,N
1608470255.7,286047000.2,N
1608470275.5,286046999.8,N
1608470295.3,286047002.8,Y
1608470315.2,286047002.8,P
1608470335.0,286047002.1,N
1608470335.9,286047002.1,N
1608470355.8,286047000.2,N
1608470375.6,286046999.7,N
1608470395.4,286046999.9,N
1608470415.3,286046999.8,N
1608470435.1,286046999.7,N
1608470455.8,286047000.6,N
1608470475.7,286046999.9,N
1608470495.5,286047000.0,N
1608470515.4,286047000.2,N
1608470535.2,286046999.8,N
1608470555.0,286047002.5,N
1608470555.9,286047002.5,N
1608470575.8,286047002.2,N
1608470595.6,286047002.5,N
1608470615.5,286047002.5,N
1608470635.3,286047002.0,N
1608470655.1,286047002.6,N
1608470675.9,286047002.3,N
1608470695.7,286047002.8,N
1608470715.5,286047000.3,N
1608470735.4,286047002.0,N
1608470755.2,286047002.7,N
1608470775.1,286047002.3,N
1608470776.0,286047002.3,N
1608470795.8,286047002.6,N
1608470815.6,286047002.7,N
1608470835.5,286047002.4,N
1608470855.3,286047002.7,N
1608470875.2,286047001.6,N
1608470895.9,286047002.0,N
1608470915.7,286047002.5,N
1608470935.6,286047001.6,N
1608470955.4,286047000.3,N
1608470975.2,286047002.0,N
1608470995.1,286046999.9,N
1608470996.0,286046999.9,N
1608471015.8,286046999.9,N
1608471035.7,286046999.8,N
1608471055.5,286047002.0,N
1608471075.3,286047002.2,N
1608471095.2,286047002.6,N
1608471115.0,286047002.3,N
1608471115.9,286047002.3,N
1608471135.8,286047000.1,N
1608471155.6,286047002.2,N
1608471175.4,286047002.6,N
1608471195.3,286047002.0,N
1608471215.1,286047002.2,N
1608471235.8,286047001.5,N
1608471255.7,286047002.1,N
1608471275.5,286047002.4,N
1608471295.4,286047002.2,N
1608471315.2,286047002.6,N
1608471335.0,286047002.4,N
1608471335.9,286047002.4,N
1608471355.8,286047002.6,N
1608471375.6,286047001.6,N
1608471395.5,286046999.8,N
1608471415.3,286047002.3,N
1608471435.1,286047002.8,N
1608471455.9,286046999.7,N
1608471475.7,286047002.1,N
1608471495.5,286047002.5,N
1608471515.4,286047002.6,N
1608471535.2,286047002.6,N
1608471555.1,286047002.3,N
1608471556.0,286047002.3,N
1608471575.8,286047002.0,N
1608471595.6,286046999.9,N
1608471615.5,286047002.3,N
1608471635.3,286046999.9,N
1608471655.2,286046999.8,N
1608471675.9,286046999.9,N
1608471695.7,286047002.3,N
1608471715.6,286047002.7,N
1608471735.4,286046999.8,N
1608471755.3,286047000.1,N
1608471775.1,286047002.2,N
1608471776.0,286047002.2,N
1608471795.8,286046999.7,N
1608471815.7,286047002.2,N
1608471835.5,286047001.4,N
1608471855.3,286047002.1,N
1608471875.2,286047002.6,N
1608471895.0,286047002.8,N
1608471895.9,286047002.8,N
1608471915.8,286047002.8,N
1608471935.6,286047000.1,N
1608471955.4,286046999.8,N
1608471975.3,286047002.7,N
1608471995.1,286047002.5,N
1608472015.9,286047002.3,N
1608472035.7,286047002.0,N
1608472055.5,286047002.4,N
1608472075.4,286047002.6,N
1608472095.2,286047002.2,N
1608472115.0,286047002.6,N
1608472115.9,286047002.6,N
1608472135.8,286047002.3,N
1608472155.6,286047002.6,N
1608472175.5,286047002.6,N
1608472195.3,286047002.1,N
1608472215.1,286047002.2,N
1608472235.9,286047001.5,N
1608472255.7,286047002.3,N
1608472275.6,286047002.2,N
1608472295.4,286047002.5,N
1608472315.2,286047002.7,Y
1608472335.1,286047001.1,P
1608472336.0,286047001.1,N
1608472355.8,286047000.9,N
1608472375.7,286046999.9,N
1608472395.5,286047000.3,N
1608472415.3,286047001.1,N
1608472435.2,286047000.6,N
1608472455.0,286047000.7,N
1608472455.9,286047000.7,N
1608472475.7,286047000.5,N
1608472495.6,286047000.1,N
1608472515.4,286046999.8,N
1608472535.3,286047000.0,N
1608472555.1,286047000.0,N
1608472575.8,286047000.5,N
1608472595.7,286047000.8,N
1608472615.5,286046998.1,Y
1608472635.4,286046998.2,P
1608472655.2,286046999.2,N
1608472675.0,286046996.5,P
1608472675.9,286046996.5,N
1608472695.8,286046999.1,N
1608472715.6,286046999.5,N
1608472735.5,286046998.7,N
1608472755.3,286046998.8,N
1608472775.1,286046998.4,N
1608472795.9,286046998.8,N
